STARLINK-1757

decayed
NORAD ID: 46339 Int'l Des: 2020-062 Owner: SPXS Country: US Constellation: starlink
LEOCIRCULAR
Group

About STARLINK-1757

Description loading...

Altitude History

Altitude vs Time

uPlot chart will show altitude changes over time

Two-Line Element Set

1 46339U 20062Q 21338.29080382 .48380163 12149-4 12515-2 0 9994
2 46339 53.0241 91.6072 0020743 161.8695 198.9472 16.43596696 70911
Epoch: Dec 4, 2021 • Age: 33143 hours

Current Status

Position data unavailable
Launch Date Sep 3, 2020
Age 5 years
Decay Date Dec 4, 2021
Type internet

Technical Details

Classification Payload
Mass 260.00 kg
Dry Mass 248.00 kg
Total Mass 260.00 kg
Length 0.20 m
Diameter 2.80 m
Span 9.00 m
Shape Box + pan
Manufacturer SPXS
Bus Type Starlink
Phase Status Reentered
Owner/State SPXS/US

Large Constellations

Loading constellations...